Regional Weather Roundup
Issued by NWS

Home | Current Version | Previous Version | Text Only | Print | Product List | Glossary On
Versions: 1 2 3 4 5 6 7 8 9 10 11 12 13 14 15 16 17 18 19 20 21 22 23 24 25 26 27 28 29 30 31 32 33 34 35 36 37 38 39 40 41 42 43 44 45 46 47 48 49 50
000
ASUS43 KDTX 291701
RWRMI
MICHIGAN HOURLY REGIONAL WEATHER ROUNDUP
NATIONAL WEATHER SERVICE DETROIT/PONTIAC MI
100 PM EDT WED JUL 29 2015

NOTE: "FAIR" INDICATES FEW OR NO CLOUDS BELOW 12,000 FEET WITH NO
SIGNIFICANT WEATHER AND/OR OBSTRUCTION TO VISIBILITY.

MIZ047>049-052>055-059>063-066>070-074>076-081>083-291800-
SOUTHEAST LOWER MICHIGAN

CITY           SKY/WX    TMP DP  RH WIND       PRES   REMARKS
ADRIAN         PTSUNNY   87  73  62 SW9       29.95S HX  94
ALMA           CLOUDY    81  75  82 SW7       29.90S
ANN ARBOR      PTSUNNY   87  73  62 S9        29.93F HX  94
BAD AXE        PTSUNNY   85  71  61 SW12      29.90F HX  90
CARO           MOSUNNY   88  73  61 SW9       29.89F HX  95
DETROIT CITY   PTSUNNY   88  70  55 S8        29.93F HX  93
DETROIT        CLOUDY    88  72  58 S9        29.93F HX  94
FLINT          PTSUNNY   89  73  59 SW9       29.91F HX  97
GROSSE ILE     MOSUNNY   84  75  74 S8        29.93F HX  92
HILLSDALE      PTSUNNY   86  76  71 SW8       29.96S HX  96
HOWELL         CLOUDY    87  72  59 SW7       29.92F HX  93

CITY           SKY/WX    TMP DP  RH WIND       PRES   REMARKS
JACKSON        PTSUNNY   87  74  64 SW14      29.94F HX  95
LAMBERTVILLE   PTSUNNY   89  74  60 S6        29.94F HX  97
LANSING        PTSUNNY   83  73  72 SW14      29.93S
LAPEER         PTSUNNY   89  71  54 SW10      29.92F HX  94
MASON          PTSUNNY   82  72  72 S6        29.93F
MONROE         PTSUNNY   86  74  66 S8        29.92F HX  94
MT. CLEMENS    PTSUNNY   85  73  65 S10       29.92S HX  92
PONTIAC        PTSUNNY   86  71  60 S9G18     29.93F HX  91
PORT HOPE        N/A     86  69  56 VRB6      29.87F HX  90
PORT HURON     MOSUNNY   86  70  58 SW7       29.93S HX  90
TRI CITIES     MOSUNNY   88  73  61 S12       29.89F HX  95
MIDLAND        PTSUNNY   87  71  58 SW7       29.87F HX  93
TROY           PTSUNNY   89  70  53 SW9       29.94F HX  93
SAGINAW HB     MOSUNNY   88  73  62 S10G18    29.88F HX  96
$$
MIZ043>046-050>051-056>058-064>065-071>073-077>080-291800-
SOUTHWEST LOWER MICHIGAN

CITY           SKY/WX    TMP DP  RH WIND       PRES   REMARKS
BATTLE CREEK   CLOUDY    84  73  69 W6        29.95S HX  90
BENTON HARBOR  CLOUDY    79  72  79 NW7       29.97S
BIG RAPIDS     CLOUDY    80  67  64 NW6       29.92S
COLDWATER      PTSUNNY   84  73  68 W8        29.95S HX  90
FREMONT        FAIR      82  63  51 W7        29.92F
HOLLAND        CLOUDY    81  71  71 VRB6      29.95F
GRAND RAPIDS   CLOUDY    81  72  74 W12       29.94R
IONIA          CLOUDY    83  73  72 SW8       29.92S
KALAMAZOO      CLOUDY    82  72  71 W10       29.95S
LUDINGTON      CLOUDY    81  67  62 W7        29.91F
MARSHALL       PTSUNNY   85  74  69 SW6       29.94S HX  93
MOUNT PLEASANT CLOUDY    86  71  61 W14       29.89R HX  91
MUSKEGON       PTSUNNY   85  63  47 W9        29.93F
SOUTH HAVEN    CLOUDY    78  70  76 NW9       29.97S
$$
MIZ016>042-291800-
NORTHERN LOWER MICHIGAN

CITY           SKY/WX    TMP DP  RH WIND       PRES   REMARKS
ALPENA         CLOUDY    87  68  52 S12       29.83F HX  90
BEAVER ISLAND  PTSUNNY   78  58  49 SW14G24   29.81F
BELLAIRE       CLOUDY    79  61  52 W7        29.86S
CADILLAC       CLOUDY    78  63  60 SW8       29.91F
CHARLEVOIX     CLOUDY    79  58  48 SW13      29.87F
FRANKFORT      PTSUNNY   79  62  55 SW7       29.88S
GAYLORD        CLOUDY    78  71  79 W16G22    29.88S
GRAYLING       CLOUDY    81  71  71 SW9       29.89S
HARBOR SPRINGS CLOUDY    79  63  57 W10       29.84S
HOUGHTON LAKE  CLOUDY    81  72  74 W9        29.89S
MANISTEE       PTSUNNY   79  57  47 W12       29.90F
OSCODA         PTSUNNY   86  69  56 SE8       29.85F HX  90
PELLSTON       CLOUDY    79  62  56 SW13G21   29.84R
ROGERS CITY    CLOUDY    85  71  63 SW9       29.82F
TRAVERSE CITY  PTSUNNY   81  58  45 W10       29.86S
$$
MIZ007>008-015-291800-
EASTERN UPPER MICHIGAN

CITY           SKY/WX    TMP DP  RH WIND       PRES   REMARKS
KINROSS        CLOUDY    79  70  73 SW12G18   29.79S
MACKINAC ISLAN CLOUDY    76  65  70 SW14G22   29.82R
MUNISING         N/A     85  50  29 SW10G21   29.72F
$$
MIZ004>006-011>014-085-291800-
CENTRAL UPPER MICHIGAN

CITY           SKY/WX    TMP DP  RH WIND       PRES   REMARKS
ESCANABA       SUNNY     82  50  32 SW18G29   29.75F
MENOMINEE      SUNNY     81  54  39 W10G20    29.81F
SAWYER-GWINN   SUNNY     81  48  32 W20G32    29.75F
$$
MIZ001>003-009>011-084-291800-
WESTERN UPPER MICHIGAN

CITY           SKY/WX    TMP DP  RH WIND       PRES   REMARKS
IRON MOUNTAIN  SUNNY     80  50  34 SW20G31   29.79S
HOUGHTON       PTSUNNY   74  51  44 W22G40    29.72F
IRONWOOD       CLOUDY    70  52  52 W22G30    29.76R
$$

ABBREVIATIONS USED IN REMARKS
   TC - TEMPERATURE IN CELSIUS
  WCI - WIND CHILL INDEX
   HX - HEAT INDEX
  VSB - VISIBILITY




USA.gov is the U.S. government's official web portal to all federal, state and local government web resources and services.